FW8587 Weather Reports


time (UTC)temp
C
wind
direction
speed
KPH
gust
KPH
rain 1hr
cm
rain 24hr
cm
rain mn
cm
humidity
%
barometer
mb
20260503223204 28 273 3.2 8.0 0.00 0.00 0.00 39 1010.7
20260503222704 29 277 3.2 9.7 0.00 0.00 0.00 40 1010.8
20260503222205 28 265 1.6 4.8 0.00 0.00 0.00 42 1010.8
20260503221707 28 233 4.8 4.8 0.00 0.00 0.00 42 1010.9
20260503221204 28 299 1.6 4.8 0.00 0.00 0.00 42 1011.0
20260503220704 28 266 3.2 4.8 0.00 0.00 0.00 41 1011.0
20260503220204 28 290 3.2 4.8 0.00 0.00 0.00 42 1011.0
20260503215705 29 295 1.6 8.0 0.00 0.00 0.00 42 1011.0
20260503215204 28 299 1.6 4.8 0.00 0.00 0.00 43 1011.1
20260503214704 28 310 3.2 4.8 0.00 0.00 0.00 44 1011.1
20260503214204 28 256 3.2 9.7 0.00 0.00 0.00 43 1011.2
20260503213704 28 297 1.6 4.8 0.00 0.00 0.00 45 1011.3
20260503213205 28 328 1.6 4.8 0.00 0.00 0.00 44 1011.3
20260503212707 28 262 3.2 4.8 0.00 0.00 0.00 43 1011.4
20260503211704 28 358 1.6 4.8 0.00 0.00 0.00 45 1011.4
20260503211204 28 276 3.2 4.8 0.00 0.00 0.00 44 1011.5
20260503210707 28 302 3.2 8.0 0.00 0.00 0.00 44 1011.6
20260503210204 28 290 3.2 4.8 0.00 0.00 0.00 45 1011.6
20260503205704 28 289 3.2 4.8 0.00 0.00 0.00 45 1011.7
20260503205204 28 273 3.2 4.8 0.00 0.00 0.00 44 1011.8
20260503204704 28 242 1.6 4.8 0.00 0.00 0.00 46 1011.8
20260503203704 27 267 3.2 11.3 0.00 0.00 0.00 46 1011.9
20260503203206 27 306 3.2 4.8 0.00 0.00 0.00 46 1011.9
20260503202704 27 232 3.2 4.8 0.00 0.00 0.00 46 1011.9
20260503202207 27 348 0.0 4.8 0.00 0.00 0.00 48 1012.0
20260503201704 27 247 1.6 4.8 0.00 0.00 0.00 47 1012.0
20260503201204 27 262 3.2 4.8 0.00 0.00 0.00 47 1012.2
20260503200204 26 288 4.8 8.0 0.00 0.00 0.00 48 1012.3
20260503195203 27 248 3.2 11.3 0.00 0.00 0.00 49 1012.4
20260503194704 26 231 1.6 4.8 0.00 0.00 0.00 50 1012.5
20260503194204 26 196 3.2 4.8 0.00 0.00 0.00 49 1012.5
20260503193705 26 261 1.6 4.8 0.00 0.00 0.00 50 1012.6
20260503193205 26 248 0.0 1.6 0.00 0.00 0.00 51 1012.6
20260503192703 25 224 1.6 9.7 0.00 0.00 0.00 49 1012.7
20260503192206 25 273 1.6 4.8 0.00 0.00 0.00 52 1012.8
20260503191703 25 224 4.8 11.3 0.00 0.00 0.00 49 1012.8
20260503191205 25 293 3.2 4.8 0.00 0.00 0.00 51 1012.8
20260503190206 25 352 1.6 4.8 0.00 0.00 0.00 54 1013.0
20260503185707 25 241 1.6 4.8 0.00 0.00 0.00 52 1013.1
20260503185205 25 244 3.2 4.8 0.00 0.00 0.00 53 1013.2
20260503184709 24 235 3.2 4.8 0.00 0.00 0.00 55 1013.2
20260503184207 24 207 1.6 8.0 0.00 0.00 0.00 55 1013.3
20260503183706 24 251 1.6 4.8 0.00 0.00 0.00 57 1013.4
20260503183205 23 285 1.6 4.8 0.00 0.00 0.00 59 1013.4
20260503182205 23 312 0.0 8.0 0.00 0.00 0.00 59 1013.5
20260503181206 22 327 1.6 4.8 0.00 0.00 0.00 61 1013.6
20260503180707 22 351 3.2 4.8 0.00 0.00 0.00 63 1013.6
20260503180207 22 0 0.0 3.2 0.00 0.00 0.00 63 1013.7
20260503175706 22 251 1.6 4.8 0.00 0.00 0.00 63 1013.7
20260503175206 21 247 1.6 4.8 0.00 0.00 0.00 65 1013.7
20260503174707 21 242 3.2 4.8 0.00 0.00 0.00 67 1013.7
20260503173707 20 287 1.6 4.8 0.00 0.00 0.00 66 1013.8
20260503171707 19 229 1.6 3.2 0.00 0.00 0.00 69 1014.0
20260503171205 19 163 0.0 3.2 0.00 0.00 0.00 70 1014.0
20260503170707 18 295 1.6 3.2 0.00 0.00 0.00 71 1014.0
20260503160208 15 284 0.0 0.0 0.00 0.00 0.00 80 1014.5
20260503150705 11 18 0.0 0.0 0.00 0.00 0.00 87 1014.5
20260503150208 11 18 0.0 0.0 0.00 0.00 0.00 88 1014.6
20260503140207 10 18 0.0 0.0 0.00 0.00 0.00 89 1014.4
20260503131205 10 18 0.0 0.0 0.00 0.00 0.00 88 1014.2
20260503130705 10 18 0.0 0.0 0.00 0.00 0.00 88 1014.2
20260503120205 11 18 0.0 1.6 0.00 0.00 0.00 86 1014.4
20260503110705 11 18 0.0 1.6 0.00 0.00 0.00 83 1014.5
20260503110206 11 18 0.0 0.0 0.00 0.00 0.00 83 1014.5
20260503100208 12 355 0.0 0.0 0.00 0.00 0.00 79 1014.7
20260503090206 13 355 0.0 0.0 0.00 0.00 0.00 76 1014.6
20260503081205 15 355 0.0 0.0 0.00 0.00 0.00 73 1014.4
20260503080205 15 355 0.0 1.6 0.00 0.00 0.00 73 1014.4
20260503072205 15 355 0.0 0.0 0.00 0.00 0.00 75 1014.8
20260503071706 15 355 0.0 1.6 0.00 0.00 0.00 76 1014.8
20260503071207 15 355 0.0 1.6 0.00 0.00 0.00 76 1014.8
20260503070709 15 355 0.0 0.0 0.00 0.00 0.00 75 1014.8
20260503070204 15 355 0.0 0.0 0.00 0.00 0.00 75 1014.8
20260503060205 16 355 0.0 0.0 0.00 0.00 0.00 72 1014.9
20260503054705 16 355 0.0 0.0 0.00 0.00 0.00 70 1014.9
20260503054204 16 355 0.0 0.0 0.00 0.00 0.00 71 1014.9
20260503053704 16 355 0.0 0.0 0.00 0.00 0.00 71 1014.8
20260503053205 16 355 0.0 0.0 0.00 0.00 0.00 70 1014.8
20260503052708 16 355 0.0 0.0 0.00 0.00 0.00 70 1014.8
20260503052213 16 355 0.0 1.6 0.00 0.00 0.00 71 1014.7
20260503051704 16 355 0.0 0.0 0.00 0.00 0.00 70 1014.7
20260503051205 16 355 0.0 1.6 0.00 0.00 0.00 68 1014.7
20260503050706 17 355 0.0 1.6 0.00 0.00 0.00 68 1014.7
20260503050205 17 355 0.0 0.0 0.00 0.00 0.00 69 1014.7
20260503045708 17 355 0.0 1.6 0.00 0.00 0.00 67 1014.7
20260503045206 17 355 0.0 0.0 0.00 0.00 0.00 66 1014.6
20260503044708 17 355 0.0 0.0 0.00 0.00 0.00 66 1014.5
20260503044206 17 355 0.0 0.0 0.00 0.00 0.00 65 1014.5
20260503043705 17 355 0.0 1.6 0.00 0.00 0.00 64 1014.4
20260503043207 17 355 0.0 0.0 0.00 0.00 0.00 65 1014.3
20260503042705 17 355 0.0 0.0 0.00 0.00 0.00 65 1014.2
20260503042205 17 355 0.0 0.0 0.00 0.00 0.00 65 1014.2
20260503041207 18 355 0.0 0.0 0.00 0.00 0.00 65 1013.9
20260503040708 18 355 0.0 0.0 0.00 0.00 0.00 62 1013.8
20260503040204 18 355 0.0 0.0 0.00 0.00 0.00 61 1013.8
20260503035705 18 355 0.0 0.0 0.00 0.00 0.00 61 1013.8
20260503035204 18 355 0.0 0.0 0.00 0.00 0.00 61 1013.7
20260503034705 18 355 0.0 0.0 0.00 0.00 0.00 61 1013.6
20260503034204 19 355 0.0 0.0 0.00 0.00 0.00 61 1013.5
20260503033706 19 355 0.0 0.0 0.00 0.00 0.00 61 1013.4
20260503033205 19 355 0.0 0.0 0.00 0.00 0.00 61 1013.3
20260503032204 20 355 0.0 1.6 0.00 0.00 0.00 59 1013.2
20260503031704 20 355 0.0 1.6 0.00 0.00 0.00 59 1013.1
20260503030207 20 66 0.0 3.2 0.00 0.00 0.00 57 1013.0
20260503025706 20 293 0.0 0.0 0.00 0.00 0.00 58 1013.0
20260503025204 20 293 0.0 1.6 0.00 0.00 0.00 58 1013.0
20260503024704 21 293 0.0 1.6 0.00 0.00 0.00 58 1013.0
20260503024205 21 293 0.0 0.0 0.00 0.00 0.00 59 1013.0
20260503023704 21 293 0.0 1.6 0.00 0.00 0.00 57 1013.0
20260503023205 21 267 0.0 1.6 0.00 0.00 0.00 58 1013.0
20260503022707 21 198 0.0 1.6 0.00 0.00 0.00 57 1012.9
20260503022205 21 355 0.0 1.6 0.00 0.00 0.00 58 1012.9
20260503021705 22 355 0.0 0.0 0.00 0.00 0.00 56 1012.9
20260503021204 22 355 0.0 1.6 0.00 0.00 0.00 57 1012.8
20260503020705 22 355 0.0 3.2 0.00 0.00 0.00 57 1012.8
20260503020205 22 210 0.0 1.6 0.00 0.00 0.00 56 1012.8
20260503015705 22 210 0.0 0.0 0.00 0.00 0.00 56 1012.9
20260503015207 22 231 0.0 0.0 0.00 0.00 0.00 55 1012.9
20260503014705 22 228 1.6 3.2 0.00 0.00 0.00 54 1012.9
20260503014207 23 257 0.0 4.8 0.00 0.00 0.00 54 1012.7
20260503013705 23 294 1.6 4.8 0.00 0.00 0.00 54 1012.8
20260503013204 23 269 1.6 4.8 0.00 0.00 0.00 52 1012.8
20260503012704 23 218 3.2 4.8 0.00 0.00 0.00 51 1012.7
20260503012207 23 255 1.6 9.7 0.00 0.00 0.00 55 1012.7
20260503011707 23 271 1.6 4.8 0.00 0.00 0.00 50 1012.8
20260503010708 23 260 1.6 4.8 0.00 0.00 0.00 52 1012.9
20260503010204 23 248 3.2 4.8 0.00 0.00 0.00 50 1013.0
20260503005705 23 322 1.6 4.8 0.00 0.00 0.00 52 1013.0
20260503005206 23 297 4.8 9.7 0.00 0.00 0.00 48 1013.1
20260503004707 23 235 3.2 4.8 0.00 0.00 0.00 49 1013.0
20260503004207 23 214 3.2 8.0 0.00 0.00 0.00 49 1013.0
20260503003704 23 241 3.2 8.0 0.00 0.00 0.00 49 1013.0
20260503003204 23 267 3.2 9.7 0.00 0.00 0.00 50 1013.0
20260503002205 23 229 1.6 4.8 0.00 0.00 0.00 50 1013.0
20260503001207 24 237 3.2 9.7 0.00 0.00 0.00 50 1013.0
20260503000704 24 226 3.2 4.8 0.00 0.00 0.00 48 1013.0
20260503000204 24 1 1.6 4.8 0.00 0.00 0.00 51 1013.1
20260502235704 23 250 3.2 8.0 0.00 0.00 0.00 50 1013.1
20260502235205 23 240 3.2 11.3 0.00 0.00 0.00 50 1013.1
20260502234704 23 248 3.2 4.8 0.00 0.00 0.00 51 1013.0
20260502234206 23 247 4.8 4.8 0.00 0.00 0.00 51 1013.1
20260502233204 23 263 4.8 9.7 0.00 0.00 0.00 50 1013.2
20260502232707 24 259 3.2 4.8 0.00 0.00 0.00 51 1013.3
20260502232204 24 255 3.2 8.0 0.00 0.00 0.00 50 1013.3
20260502231204 24 271 1.6 4.8 0.00 0.00 0.00 51 1013.5
20260502230704 24 242 3.2 8.0 0.00 0.00 0.00 50 1013.5
20260502230205 24 258 3.2 8.0 0.00 0.00 0.00 51 1013.5
20260502225704 24 242 3.2 8.0 0.00 0.00 0.00 51 1013.5
20260502225204 23 347 4.8 11.3 0.00 0.00 0.00 51 1013.5
20260502224709 23 179 3.2 9.7 0.00 0.00 0.00 52 1013.7
20260502224204 24 247 3.2 11.3 0.00 0.00 0.00 52 1013.9